Regional Weather Roundup
Issued by NWS Upton, NY

Current Version | Previous Version | Text Only | Print | Product List | Glossary Off
Versions: 1 2 3 4 5 6 7 8 9 10 11 12 13 14 15 16 17 18 19 20 21 22 23 24 25 26 27 28 29 30 31 32 33 34 35 36 37 38 39 40 41 42 43 44 45 46 47 48 49 50
775 ASUS41 KOKX 051604 RWROKX REGIONAL WEATHER ROUNDUP NATIONAL WEATHER SERVICE NEW YORK NY 1100 AM EST FRI FEB 05 2016 NOTE: "FAIR" INDICATES FEW OR NO CLOUDS BELOW 12,000 FEET WITH NO SIGNIFICANT WEATHER AND/OR OBSTRUCTIONS TO VISIBILITY. NYZ071-072-176-178-NJZ106-104-051700- NEW YORK CITY METRO AREA CITY SKY/WX TMP DP RH WIND PRES REMARKS CENTRAL PARK SNOW 31 28 89 VRB6G21 30.12F VSB 1/2 WCI 25 LAGUARDIA APRT LGT SNOW 33 28 81 N18G30 30.09S VSB 3/4 WCI 22 KENNEDY INTL SNOW 32 30 92 N22G30 30.09F VSB 1/2 WCI 19 NEWARK/LIBERTY LGT SNOW 32 29 88 N17 30.11F FOG WCI 21 BRNX BOT. GARD N/A 32 32 100 NW8 30.11F WCI 25 TETERBORO LGT SNOW 32 26 78 N12G20 30.10F WCI 23 $$ NYZ177-179-078>081-051700- LONG ISLAND NEW YORK CITY SKY/WX TMP DP RH WIND PRES REMARKS FARMINGDALE HVY SNOW 32 30 92 N15G26 30.03F VSB 1/4 WCI 22 ISLIP HVY SNOW 32 31 96 N21G28 29.94F VSB 1/8 WCI 20 SHIRLEY HVY SNOW 33 32 96 N15G30 29.96F VSB 1/4 WCI 23 RIVERHEAD N/A 32 30 93 CALM 30.01F WESTHAMPTON FOG 32 31 96 N21G32 29.95F VSB 1/4 WCI 20 EAST HAMPTON NOT AVBL MONTAUK POINT N/A 34 34 100 N20G28 30.00 WCI 23 $$ NYZ052-065-067-051700- HUDSON VALLEY CITY SKY/WX TMP DP RH WIND PRES REMARKS WHITE PLAINS LGT SNOW 31 27 85 N18G26 30.05F VSB 3/4 WCI 19 NEWBURGH PTSUNNY 34 23 64 NE14 30.12S WCI 24 MONTGOMERY CLOUDY 38 18 44 N10 30.07 WCI 31 POUGHKEEPSIE CLOUDY 36 24 62 N7 30.10R WCI 30 ALBANY CLOUDY 35 23 61 N7 30.15 WCI 29 $$ NJZ001-105-106-008-010-013-015-019>022-104-051700- NEW JERSEY CITY SKY/WX TMP DP RH WIND PRES REMARKS NEWARK/LIBERTY LGT SNOW 32 29 88 N17 30.11F FOG WCI 21 TETERBORO LGT SNOW 32 26 78 N12G20 30.10F WCI 23 CALDWELL CLOUDY 32 28 85 CALM 30.11 MORRISTOWN CLOUDY 32 30 93 N3 30.12 SOMERVILLE CLOUDY 34 31 88 CALM 30.10 SUSSEX CLOUDY 37 16 42 N12G20 30.11 WCI 29 ANDOVER N/A 36 17 46 N8G24 30.08 WCI 30 TRENTON CLOUDY 33 29 85 N6 30.12 WCI 28 MILLVILLE CLOUDY 34 31 88 NW7 30.15F WCI 28 ATLANTIC CITY LGT SNOW 33 33 100 N16G24 30.10R VSB 1 WCI 23 WRIGHTSTOWN LGT SNOW 32 32 100 N10 30.10F FOG WCI 24 TOMS RIVER CLOUDY 32 27 80 N16G22 30.12S WCI 21 BELMAR CLOUDY 30 23 74 N23G31 30.07R VSB 3/4 WCI 17 $$ PAZ047>061-062-071-051700- EASTERN PENNSYLVANIA CITY SKY/WX TMP DP RH WIND PRES REMARKS PHILADELPHIA CLOUDY 37 29 72 N5 30.17R WCI 33 ALLENTOWN CLOUDY 39 22 50 N15 30.13 WCI 31 SCRANTON PTSUNNY 35 20 54 N12 30.15 WCI 27 $$ CTZ002-004>006-009-010-012-RIZ004-006-007-MAZ004-011-015-051700- SOUTHERN NEW ENGLAND IN CT CITY SKY/WX TMP DP RH WIND PRES REMARKS BRADLEY INTL HVY SNOW 31 30 96 N10 30.09 VSB 1/4 WCI 22 HARTFORD HVY SNOW 33 31 92 N12 30.08R VSB 1/4 WCI 24 DANBURY LGT SNOW 31 25 78 N20G33 30.05F VSB 3/4 WCI 19 WTRBRY/OXFORD SNOW 30 21 69 N17G25 29.98 VSB 1/2 WCI 18 BRIDGEPORT SNOW 32 31 96 N14 30.04F VSB 1/4 WCI 22 MERIDEN HVY SNOW 33 30 88 N12 30.04F VSB 1/4 WCI 24 NEW HAVEN HVY SNOW 32 31 96 N13G23 30.01F VSB 1/4 WCI 22 CHESTER CLOUDY 32 32 100 N9G21 30.00F VSB<1/4 WCI 24 GROTON SNOW 33 33 100 N14 30.01R VSB 1/2 WCI 23 WILLIMANTIC HVY SNOW 33 30 88 N13G30 30.05R VSB 1/4 WCI 24 IN RI CITY SKY/WX TMP DP RH WIND PRES REMARKS PROVIDENCE SNOW 33 31 92 N16 29.99F VSB 1/2 WCI 23 BLOCK ISLAND CLOUDY 34 34 100 N16G31 29.94R WCI 23 WESTERLY SNOW 33 32 96 N13 30.00R VSB 1/2 WCI 24 IN MA CITY SKY/WX TMP DP RH WIND PRES REMARKS BOSTON HVY SNOW 32 30 92 N21G29 30.01F VSB 1/4 WCI 20 WORCESTER HVY SNOW 28 26 92 N14G24 30.00F VSB 1/4 WCI 17 WESTFIELD SNOW 31 29 92 N14 30.09R VSB 1/2 WCI 21 PROVINCETOWN LGT SNOW 34 33 96 N28G37 29.90F FOG WCI 21 NANTUCKET LGT RAIN 39 36 89 N36G51 29.81 FOG WCI 26 $$ ANZ330-335-338-340-345-350-353-355-051700- COASTAL MARINE OBSERVATIONS STATION/POSITION TIME SKY/WX TEMP WIND PRES VSBY WAVE AIR SEA DIR/SP/G HT/PER (UTC) (F) (DEG/KT/KT) (MB) (MI) (FT/S) NY HARB ENTRANCE NOT AVBL 4S FIRE IS NOT AVBL 20S FIRE ISLAND NOT AVBL GREAT SOUTH BAY NOT AVBL 23SW MTP 1550 35 45 340/ 27/ 33 1013.6 7/ 5 HUDSON CANYON NOT AVBL KINGS POINT 1500 32 39 40/ 22/ 28 1019.5 EXECUTION ROCKS NOT AVBL CENTRAL LI SOUND 1445 34 350/ 19/ 21 N/A 3/ 3 EASTERN LI SOUND 1500 35 42 350/ 17/ 21 N/A ROBBINS REEF 1500 31 350/ 12/ 16 1020.9 $$ >>>>>>>>>>>>>>>>>>>>>>>>>>>> KEY <<<<<<<<<<<<<<<<<<<<<<<<<<< > < > SKY/WX - SKY CONDITION/PRESENT WEATHER < > TMP - TEMPERATURE IN FAHRENHEIT < > DP - DEWPOINT IN FAHRENHEIT < > RH - RELATIVE HUMIDITY IN PERCENT < > WIND - DIRECTION AND SPEED IN MPH < > PRES - MEAN SEA LEVEL PRESSURE IN INCHES OF HG < > WCI - WIND CHILL INDEX < > VSB - VISIBILITY IN MILES < > HX - HEAT INDEX < > TC - TEMPERATURE IN CELSIUS < > VRB - VARIABLE WIND DIRECTION < > < >>>>>>>>>>>>>>>>>>>>>>>>>>>> KEY <<<<<<<<<<<<<<<<<<<<<<<<<<<

USA.gov is the U.S. government's official web portal to all federal, state and local government web resources and services.